Lubbock, TX

5:47 PM CST on November 18, 2019 (GMT -0600)
Lubbock International

Weather History for KLBB - August, 2019

Change the Weather History Date:

Monday, August 5, 2019

  Actual Average Record
Temperature  
Mean Temperature 82 °F 80 °F  
Max Temperature 96 °F 92 °F 102 °F (2003)
Min Temperature 68 °F 68 °F 57 °F (1915)
Degree Days  
Heating Degree Days 0 0  
Month to date heating degree days 0 0  
Since 1 June heating degree days 0 2  
Since 1 July heating degree days 0 0  
Cooling Degree Days 17 15  
Month to date cooling degree days 97 75  
Year to date cooling degree days 1204 1168  
Since 1 June cooling degree days 994 922  
Growing Degree Days 32 (Base 50)    
Moisture  
Dew Point 60 °F    
Average Humidity 55    
Maximum Humidity 84    
Minimum Humidity 26    
Precipitation  
Precipitation 0.00 in 0.07 in 0.85 in (1944)
Month to date precipitation 0.03 0.31  
Year to date precipitation 13.48 11.47  
Snow  
Snow 0.00 in 0.00 in 0.00 in (2002)
Month to date snowfall 0.0 0.0  
Since 1 June snowfall 0.0 0.0  
Since 1 July snowfall 0.0 0.0  
Snow Depth 0.00 in    
Sea Level Pressure  
Sea Level Pressure 29.92 in    
Wind  
Wind Speed 6 mph (SE)    
Max Wind Speed 13 mph    
Max Gust Speed 17 mph    
Visibility 10 miles    
Events      
T = Trace of Precipitation, MM = Missing Value Source: NWS Daily Summary

Daily Weather History Graph

Daily Weather History Graph

Search for Another Location

Airport or City:

Astronomy

Aug. 05, 2019 Rise Set
Actual Time 7:02 AM CDT 8:43 PM CDT
Civil Twilight 6:35 AM CDT 9:10 PM CDT
Nautical Twilight 6:02 AM CDT 9:43 PM CDT
Astronomical Twilight 5:28 AM CDT 10:17 PM CDT
Moon 12:06 PM CDT (8/5) No Moon Set
Length of Visible Light 14h 35m
Length of Day
13h 41m
Waxing Crescent, 28% of the Moon is Illuminated
Aug 5
Waxing Crescent
Aug 7
First Quarter
Aug 15
Full
Aug 23
Last Quarter
Aug 30
New

Hourly Weather History & Observations

Time (CDT) Temp. Heat Index Dew Point Humidity Pressure Visibility Wind Dir Wind Speed Gust Speed Precip Events Conditions
12:53 AM 75.0 °F - 60.1 °F 60% 29.93 in 10.0 mi ESE 9.2 mph - N/A   Partly Cloudy
1:53 AM 73.9 °F - 63.0 °F 68% 29.94 in 10.0 mi SE 8.1 mph - N/A   Clear
2:53 AM 73.0 °F - 64.0 °F 73% 29.92 in 10.0 mi SE 8.1 mph - N/A   Partly Cloudy
3:53 AM 72.0 °F - 64.9 °F 78% 29.92 in 10.0 mi SE 6.9 mph - N/A   Partly Cloudy
4:53 AM 71.1 °F - 64.9 °F 81% 29.93 in 10.0 mi SSE 5.8 mph - N/A   Scattered Clouds
5:53 AM 69.1 °F - 64.9 °F 87% 29.93 in 8.0 mi ESE 5.8 mph - N/A   Clear
5:57 AM 69.1 °F - 64.9 °F 87% 30.10 in 10.0 mi ESE 5.8 mph - N/A   Mostly Cloudy
6:53 AM 69.1 °F - 64.0 °F 84% 29.94 in 10.0 mi SE 4.6 mph - N/A   Mostly Cloudy
7:53 AM 71.1 °F - 64.9 °F 81% 29.96 in 10.0 mi Calm Calm - N/A   Mostly Cloudy
8:53 AM 75.9 °F - 66.9 °F 74% 29.97 in 10.0 mi SSW 5.8 mph - N/A   Scattered Clouds
9:53 AM 82.0 °F 84.1 °F 66.0 °F 58% 29.96 in 10.0 mi SSW 6.9 mph - N/A   Scattered Clouds
10:53 AM 84.9 °F 85.4 °F 62.1 °F 46% 29.96 in 10.0 mi Variable 3.5 mph - N/A   Scattered Clouds
11:53 AM 88.0 °F 87.1 °F 59.0 °F 37% 29.95 in 10.0 mi Calm Calm - N/A   Scattered Clouds
12:53 PM 91.0 °F 90.0 °F 57.9 °F 33% 29.93 in 10.0 mi Calm Calm - N/A   Scattered Clouds
1:53 PM 93.0 °F 91.7 °F 57.0 °F 30% 29.91 in 10.0 mi ENE 4.6 mph - N/A   Scattered Clouds
2:53 PM 93.9 °F 92.6 °F 57.0 °F 29% 29.90 in 10.0 mi Variable 3.5 mph - N/A   Scattered Clouds
3:53 PM 95.0 °F 93.7 °F 57.0 °F 28% 29.88 in 10.0 mi ESE 11.5 mph 17.3 mph N/A   Scattered Clouds
4:53 PM 95.0 °F 93.0 °F 55.0 °F 26% 29.87 in 10.0 mi ENE 6.9 mph - N/A   Scattered Clouds
5:53 PM 95.0 °F 93.0 °F 55.0 °F 26% 29.86 in 10.0 mi ENE 8.1 mph - N/A   Scattered Clouds
6:53 PM 93.9 °F 91.4 °F 53.1 °F 25% 29.85 in 10.0 mi East 6.9 mph - N/A   Mostly Cloudy
7:53 PM 91.0 °F 88.7 °F 54.0 °F 28% 29.84 in 10.0 mi SE 6.9 mph - N/A   Mostly Cloudy
8:53 PM 84.9 °F 83.9 °F 57.0 °F 38% 29.85 in 10.0 mi ESE 6.9 mph - N/A   Scattered Clouds
9:53 PM 84.9 °F 83.9 °F 57.0 °F 38% 29.84 in 10.0 mi SE 9.2 mph - N/A   Scattered Clouds
10:53 PM 82.0 °F 81.4 °F 55.0 °F 39% 29.86 in 10.0 mi SE 5.8 mph - N/A   Scattered Clouds
11:53 PM 82.0 °F 81.4 °F 55.0 °F 39% 29.86 in 10.0 mi SE 6.9 mph - N/A   Scattered Clouds